EDT,Max TemperatureF,Mean TemperatureF,Min TemperatureF,Max Dew PointF,MeanDew PointF,Min DewpointF,Max Humidity, Mean Humidity, Min Humidity, Max Sea Level PressureIn, Mean Sea Level PressureIn, Min Sea Level PressureIn, Max VisibilityMiles, Mean VisibilityMiles, Min VisibilityMiles, Max Wind SpeedMPH, Mean Wind SpeedMPH, Max Gust SpeedMPH,PrecipitationIn, CloudCover, Events, WindDirDegrees
2013-3-1,32,30,27,26,21,19,80,72,64,30.12,30.05,29.97,10,9,2,15,10,21,0.00,8,Snow,358
2013-3-2,30,28,25,21,19,16,80,72,64,30.10,30.07,30.04,10,8,2,14,9,17,0.00,8,Snow,330
2013-3-3,30,26,21,18,15,13,75,65,51,30.09,30.06,30.01,10,10,9,13,8,,0.00,6,,296
2013-3-4,36,26,17,22,17,13,84,68,46,30.18,30.13,30.10,10,10,10,7,4,,0.00,0,,265
2013-3-5,30,27,24,25,23,21,88,80,75,30.13,29.92,29.77,10,10,2,22,11,34,0.00,6,,62
2013-3-6,39,34,30,29,27,24,82,73,65,30.23,30.08,29.80,10,10,8,18,12,30,0.00,8,,8
2013-3-7,39,36,30,29,26,19,82,69,54,30.41,30.32,30.22,10,9,5,14,7,,0.00,8,,312
2013-3-8,43,34,24,27,22,18,79,65,49,30.51,30.47,30.42,10,10,10,8,3,,0.00,0,,56
2013-3-9,48,38,27,34,29,23,89,73,50,30.43,30.27,30.05,10,9,5,10,5,,0.00,1,,116
2013-3-10,66,52,37,43,37,32,82,54,36,30.04,29.93,29.82,10,10,8,20,9,31,0.00,2,Rain,172
2013-3-11,57,47,37,48,43,31,88,77,62,29.82,29.67,29.49,10,9,2,24,17,37,0.39,8,Rain,204
2013-3-12,37,35,30,32,28,24,87,76,64,29.97,29.89,29.77,10,9,6,22,15,29,0.01,7,Rain,237
2013-3-13,33,30,27,27,21,15,86,69,54,30.25,30.02,29.90,10,9,1,24,14,30,0.00,7,Snow,269
2013-3-14,43,32,23,22,18,15,78,60,40,30.30,30.23,30.14,10,10,10,14,9,20,0.00,0,,262
2013-3-15,46,38,30,37,30,23,93,77,60,30.12,29.96,29.86,10,7,3,14,8,,0.07,5,Rain,247
2013-3-16,36,32,30,34,30,25,100,89,75,30.07,29.85,29.73,10,6,1,14,8,22,0.07,8,Rain-Snow,32
2013-3-17,30,28,26,25,20,15,80,69,56,30.28,30.19,30.06,10,10,10,18,9,24,0.00,5,,28
2013-3-18,39,34,28,38,31,21,100,88,69,30.16,29.74,29.56,10,5,1,20,11,28,0.11,7,Rain,89
2013-3-19,36,30,24,32,18,13,87,64,48,29.99,29.83,29.68,10,8,2,29,20,38,0.00,7,Snow,255
2013-3-20,32,24,19,19,13,8,75,59,45,30.00,29.97,29.94,10,10,3,20,12,25,0.00,5,Snow,273
2013-3-21,34,24,17,21,16,10,81,67,54,29.99,29.94,29.90,10,9,2,21,12,25,0.00,7,Snow,275
2013-3-22,43,34,27,21,18,16,72,57,40,30.05,30.01,29.98,10,10,10,15,12,18,0.00,4,,293
2013-3-23,42,31,23,25,22,19,85,68,49,30.11,30.08,30.04,10,10,9,8,5,,0.00,3,,7
2013-3-24,36,32,27,27,24,21,82,73,61,30.05,29.85,29.58,10,10,9,24,10,31,0.00,4,,59
2013-3-25,37,34,30,32,29,25,93,84,70,29.91,29.63,29.50,10,3,0,20,12,28,0.17,8,Fog-Rain-Snow,23
2013-3-26,46,39,34,31,28,27,82,71,51,30.15,30.04,29.92,10,10,10,15,10,,0.00,8,,300
2013-3-27,48,39,32,30,25,23,85,60,40,30.24,30.19,30.15,10,10,10,18,12,26,0.00,5,,287
2013-3-28,52,40,28,31,24,21,72,54,35,30.30,30.26,30.24,10,10,10,13,10,,0.00,5,,286
2013-3-29,52,40,28,26,22,18,75,51,27,30.31,30.27,30.22,10,10,10,12,6,16,0.00,0,,276
2013-3-30,55,41,27,31,24,19,78,52,27,30.25,30.14,29.96,10,10,10,16,4,22,0.00,0,,220
2013-3-31,62,50,39,43,35,28,82,62,31,29.94,29.75,29.65,10,9,6,17,9,30,0.00,5,Rain,226